SVA1052 OEJN-OERK

Flight info

Callsign SVA1052
Flight time N/A
Altitude 35000
Route EGREP T532 ORDEM
Aircraft B77W/H-SDE1E2E3FGHIJ2J3J4J5M1RWXY/LB1D1

Departure

Time 2026-05-05 20:06
Airport King Abdulaziz International Airport (OEJN)

Arrival

Time N/A
Airport King Khalid International Airport (OERK)
Time Latitude Longitude Altitude Speed Heading
2026-05-05 19:35 21.67581 39.16979 48 ft 0 kts 67°
2026-05-05 19:54 21.67580 39.16976 48 ft 1 kts 68°
2026-05-05 19:54 21.67573 39.16958 45 ft 3 kts 68°
2026-05-05 19:54 21.67565 39.16938 43 ft 3 kts 68°
2026-05-05 19:55 21.67559 39.16921 40 ft 2 kts 66°
2026-05-05 19:55 21.67551 39.16905 40 ft 3 kts 46°
2026-05-05 19:55 21.67543 39.16896 40 ft 3 kts 13°
2026-05-05 19:55 21.67537 39.16894 40 ft 3 kts 333°
2026-05-05 19:56 21.67522 39.16905 39 ft 3 kts 322°
2026-05-05 19:56 21.67506 39.16918 42 ft 3 kts 330°
2026-05-05 19:56 21.67496 39.16924 42 ft 1 kts 337°
2026-05-05 19:56 21.67496 39.16923 42 ft 0 kts 337°
2026-05-05 19:58 21.67514 39.16915 43 ft 8 kts 336°
2026-05-05 19:59 21.67574 39.16887 41 ft 10 kts 335°
2026-05-05 19:59 21.67639 39.16857 42 ft 10 kts 338°
2026-05-05 19:59 21.67698 39.16810 42 ft 14 kts 296°
2026-05-05 19:59 21.67678 39.16695 44 ft 16 kts 250°
2026-05-05 20:00 21.67639 39.16580 48 ft 16 kts 249°
2026-05-05 20:00 21.67609 39.16494 47 ft 10 kts 248°
2026-05-05 20:00 21.67580 39.16415 44 ft 13 kts 251°
2026-05-05 20:00 21.67546 39.16305 37 ft 12 kts 251°
2026-05-05 20:01 21.67517 39.16218 36 ft 13 kts 249°
2026-05-05 20:01 21.67456 39.16160 37 ft 13 kts 183°
2026-05-05 20:01 21.67373 39.16190 37 ft 13 kts 158°
2026-05-05 20:01 21.67291 39.16225 39 ft 13 kts 158°
2026-05-05 20:02 21.67207 39.16259 42 ft 14 kts 159°
2026-05-05 20:02 21.67118 39.16294 43 ft 14 kts 162°
2026-05-05 20:02 21.67028 39.16326 43 ft 14 kts 158°
2026-05-05 20:02 21.66940 39.16365 44 ft 14 kts 158°
2026-05-05 20:03 21.66851 39.16400 45 ft 14 kts 161°
2026-05-05 20:03 21.66761 39.16434 44 ft 14 kts 160°
2026-05-05 20:03 21.66667 39.16470 43 ft 15 kts 160°
2026-05-05 20:03 21.66571 39.16508 44 ft 15 kts 160°
2026-05-05 20:04 21.66474 39.16545 43 ft 15 kts 160°
2026-05-05 20:04 21.66373 39.16588 40 ft 16 kts 158°
2026-05-05 20:04 21.66294 39.16622 40 ft 12 kts 158°
2026-05-05 20:04 21.66220 39.16645 40 ft 10 kts 185°
2026-05-05 20:05 21.66166 39.16585 38 ft 13 kts 247°
2026-05-05 20:05 21.66142 39.16502 38 ft 6 kts 273°
2026-05-05 20:05 21.66172 39.16470 37 ft 7 kts 335°
2026-05-05 20:05 21.66360 39.16394 40 ft 67 kts 340°
2026-05-05 20:06 21.67042 39.16126 41 ft 139 kts 340°
2026-05-05 20:06 21.68068 39.15729 417 ft 159 kts 339°
2026-05-05 20:06 21.69097 39.15309 1191 ft 157 kts 339°
2026-05-05 20:06 21.70090 39.14884 2069 ft 153 kts 338°
2026-05-05 20:07 21.71166 39.14431 2389 ft 182 kts 341°
2026-05-05 20:07 21.72445 39.13940 2632 ft 209 kts 341°
2026-05-05 20:07 21.73915 39.13375 2810 ft 241 kts 340°
2026-05-05 20:07 21.75528 39.12752 3438 ft 249 kts 340°
2026-05-05 20:08 21.77175 39.12114 4304 ft 252 kts 340°
2026-05-05 20:08 21.78832 39.11469 5127 ft 254 kts 339°
2026-05-05 20:08 21.80496 39.10817 5970 ft 254 kts 338°
2026-05-05 20:08 21.82203 39.10144 6525 ft 269 kts 338°
2026-05-05 20:09 21.83995 39.09438 7134 ft 278 kts 338°
2026-05-05 20:09 21.85835 39.08713 7833 ft 285 kts 338°
2026-05-05 20:09 21.87758 39.08113 8425 ft 295 kts 353°
2026-05-05 20:09 21.89801 39.08420 9140 ft 301 kts 23°
2026-05-05 20:10 21.91539 39.09710 9821 ft 310 kts 47°
2026-05-05 20:10 21.92942 39.11488 10395 ft 318 kts 51°
2026-05-05 20:10 21.94382 39.13411 10638 ft 343 kts 52°
2026-05-05 20:10 21.95929 39.15502 10841 ft 369 kts 52°
2026-05-05 20:11 21.97559 39.17709 11391 ft 382 kts 52°
2026-05-05 20:11 21.99240 39.19978 12099 ft 393 kts 52°
2026-05-05 20:11 22.00968 39.22305 12909 ft 401 kts 53°
2026-05-05 20:11 22.02704 39.24636 13718 ft 408 kts 53°
2026-05-05 20:12 22.04498 39.27041 14531 ft 413 kts 52°
2026-05-05 20:12 22.06307 39.29463 15406 ft 417 kts 52°
2026-05-05 20:12 22.08138 39.31913 16243 ft 422 kts 52°
2026-05-05 20:12 22.09988 39.34388 17082 ft 427 kts 52°
2026-05-05 20:13 22.11865 39.36900 17910 ft 433 kts 52°
2026-05-05 20:13 22.13766 39.39448 18628 ft 438 kts 52°
2026-05-05 20:13 22.14412 39.40313 18864 ft 440 kts 52°
2026-05-05 20:13 22.17635 39.44634 20053 ft 449 kts 52°
2026-05-05 20:14 22.19602 39.47272 20753 ft 454 kts 52°
2026-05-05 20:14 22.21590 39.49941 21453 ft 459 kts 51°
2026-05-05 20:14 22.23601 39.52641 22143 ft 464 kts 52°
2026-05-05 20:14 22.25634 39.55373 22804 ft 470 kts 51°
2026-05-05 20:15 22.27693 39.58141 23442 ft 475 kts 51°
2026-05-05 20:15 22.29770 39.60936 23983 ft 480 kts 51°
2026-05-05 20:15 22.31875 39.63770 24477 ft 487 kts 51°
2026-05-05 20:15 22.34004 39.66638 24979 ft 492 kts 51°
2026-05-05 20:16 22.36155 39.69535 25508 ft 497 kts 51°
2026-05-05 20:16 22.38324 39.72460 26039 ft 501 kts 51°
2026-05-05 20:16 22.40511 39.75410 26536 ft 506 kts 51°
2026-05-05 20:16 22.42725 39.78398 27013 ft 512 kts 51°
2026-05-05 20:17 22.44962 39.81411 27488 ft 516 kts 50°
2026-05-05 20:17 22.47350 39.84336 27940 ft 521 kts 45°
2026-05-05 20:17 22.50007 39.87031 28376 ft 526 kts 40°
2026-05-05 20:17 22.52776 39.89652 28805 ft 532 kts 39°
2026-05-05 20:18 22.55583 39.92270 29305 ft 535 kts 39°
2026-05-05 20:18 22.58413 39.94912 29769 ft 539 kts 39°
2026-05-05 20:18 22.61262 39.97591 30142 ft 544 kts 39°
2026-05-05 20:18 22.64082 40.00264 30490 ft 548 kts 39°
2026-05-05 20:19 22.66974 40.03023 30981 ft 547 kts 39°
2026-05-05 20:19 22.69785 40.05716 31530 ft 545 kts 39°
2026-05-05 20:19 22.72621 40.08437 32061 ft 544 kts 39°
2026-05-05 20:19 22.75454 40.11157 32567 ft 544 kts 39°
2026-05-05 20:20 22.78282 40.13871 33031 ft 544 kts 39°
2026-05-05 20:20 22.81116 40.16590 33494 ft 544 kts 39°
2026-05-05 20:20 22.83945 40.19305 33954 ft 544 kts 39°
2026-05-05 20:20 22.86776 40.22024 34349 ft 544 kts 39°
2026-05-05 20:21 22.89609 40.24745 34725 ft 544 kts 39°
2026-05-05 20:21 22.91522 40.26584 34980 ft 543 kts 39°
2026-05-05 20:21 22.95279 40.30197 35060 ft 548 kts 39°
2026-05-05 20:22 23.00005 40.34746 35066 ft 545 kts 39°
2026-05-05 20:22 23.05662 40.40200 35053 ft 543 kts 39°
2026-05-05 20:23 23.11315 40.45654 35049 ft 544 kts 39°
2026-05-05 20:23 23.16967 40.51115 35047 ft 544 kts 39°
2026-05-05 20:24 23.22618 40.56582 35042 ft 544 kts 40°
2026-05-05 20:24 23.27548 40.62848 35043 ft 548 kts 56°
2026-05-05 20:25 23.31005 40.70212 35044 ft 547 kts 70°
2026-05-05 20:25 23.34042 40.79255 35046 ft 548 kts 72°
2026-05-05 20:26 23.36225 40.85788 35042 ft 549 kts 71°
2026-05-05 20:26 23.38893 40.93574 35040 ft 549 kts 71°
2026-05-05 20:27 23.41589 41.01348 35038 ft 549 kts 71°
2026-05-05 20:27 23.44282 41.09122 35037 ft 548 kts 71°